GLD1794 LPPI-LPLA

Flight info

Callsign GLD1794
Flight time 0h 32m
Altitude 7000
Route GORZI DCT LIZHA DCT CUDLY
Aircraft BE58/L-SDFGRY/C

Departure

Time 2026-05-08 16:05
Airport Pico Airport (LPPI)

Arrival

Time 2026-05-08 16:37
Airport Lajes Airport (LPLA)
Time Latitude Longitude Altitude Speed Heading
2026-05-08 15:49 38.55279 -28.44109 136 ft 0 kts 309°
2026-05-08 16:02 38.55288 -28.44126 137 ft 8 kts 303°
2026-05-08 16:02 38.55317 -28.44211 138 ft 11 kts 266°
2026-05-08 16:02 38.55342 -28.44285 138 ft 8 kts 323°
2026-05-08 16:02 38.55390 -28.44355 135 ft 13 kts 303°
2026-05-08 16:03 38.55400 -28.44471 134 ft 16 kts 262°
2026-05-08 16:03 38.55384 -28.44630 134 ft 20 kts 263°
2026-05-08 16:03 38.55365 -28.44805 134 ft 18 kts 259°
2026-05-08 16:03 38.55351 -28.44939 136 ft 13 kts 225°
2026-05-08 16:04 38.55356 -28.44906 135 ft 5 kts 71°
2026-05-08 16:04 38.55357 -28.44897 135 ft 0 kts 80°
2026-05-08 16:04 38.55368 -28.44805 134 ft 47 kts 82°
2026-05-08 16:04 38.55429 -28.44028 202 ft 114 kts 79°
2026-05-08 16:05 38.55417 -28.42996 696 ft 113 kts 88°
2026-05-08 16:05 38.55398 -28.42016 1254 ft 108 kts 72°
2026-05-08 16:05 38.55854 -28.41439 1740 ft 98 kts 356°
2026-05-08 16:05 38.56522 -28.41476 2422 ft 93 kts 351°
2026-05-08 16:06 38.57171 -28.41552 3074 ft 94 kts 352°
2026-05-08 16:06 38.57819 -28.41625 3685 ft 95 kts 352°
2026-05-08 16:06 38.58555 -28.41691 3978 ft 120 kts 355°
2026-05-08 16:06 38.59457 -28.41730 4225 ft 137 kts 357°
2026-05-08 16:07 38.60459 -28.41748 4464 ft 148 kts 358°
2026-05-08 16:07 38.61501 -28.41755 4696 ft 155 kts 358°
2026-05-08 16:07 38.62596 -28.41759 4923 ft 159 kts 358°
2026-05-08 16:07 38.63720 -28.41761 5134 ft 163 kts 358°
2026-05-08 16:08 38.64852 -28.41763 5342 ft 165 kts 358°
2026-05-08 16:08 38.66010 -28.41765 5549 ft 166 kts 358°
2026-05-08 16:08 38.67173 -28.41768 5756 ft 167 kts 358°
2026-05-08 16:08 38.68341 -28.41771 5961 ft 168 kts 358°
2026-05-08 16:09 38.69518 -28.41770 6161 ft 169 kts 359°
2026-05-08 16:09 38.70645 -28.41378 6366 ft 174 kts 25°
2026-05-08 16:09 38.71557 -28.40320 6568 ft 183 kts 49°
2026-05-08 16:09 38.72003 -28.38755 6761 ft 195 kts 77°
2026-05-08 16:10 38.71863 -28.36979 6961 ft 203 kts 94°
2026-05-08 16:10 38.71595 -28.35189 6984 ft 209 kts 94°
2026-05-08 16:10 38.71328 -28.33403 6981 ft 198 kts 94°
2026-05-08 16:10 38.71082 -28.31700 6977 ft 190 kts 93°
2026-05-08 16:11 38.70849 -28.30066 6979 ft 185 kts 93°
2026-05-08 16:11 38.70616 -28.28405 6980 ft 194 kts 93°
2026-05-08 16:11 38.70367 -28.26659 6988 ft 202 kts 94°
2026-05-08 16:11 38.70105 -28.24856 6998 ft 208 kts 94°
2026-05-08 16:12 38.69841 -28.23032 6994 ft 213 kts 94°
2026-05-08 16:12 38.69568 -28.21156 6995 ft 214 kts 94°
2026-05-08 16:12 38.69296 -28.19277 6994 ft 213 kts 94°
2026-05-08 16:12 38.69028 -28.17433 6991 ft 213 kts 94°
2026-05-08 16:13 38.68757 -28.15561 6991 ft 212 kts 94°
2026-05-08 16:13 38.68487 -28.13687 6992 ft 215 kts 94°
2026-05-08 16:13 38.68215 -28.11818 6992 ft 216 kts 94°
2026-05-08 16:13 38.67938 -28.09914 6991 ft 217 kts 94°
2026-05-08 16:14 38.67662 -28.08027 7000 ft 217 kts 94°
2026-05-08 16:14 38.67382 -28.06113 6991 ft 219 kts 94°
2026-05-08 16:14 38.67105 -28.04205 6994 ft 221 kts 94°
2026-05-08 16:14 38.66820 -28.02253 6993 ft 223 kts 94°
2026-05-08 16:15 38.66533 -28.00306 6984 ft 221 kts 94°
2026-05-08 16:15 38.66251 -27.98389 6978 ft 217 kts 93°
2026-05-08 16:15 38.65978 -27.96516 6974 ft 214 kts 93°
2026-05-08 16:15 38.65703 -27.94642 6972 ft 213 kts 93°
2026-05-08 16:16 38.65431 -27.92788 6975 ft 211 kts 93°
2026-05-08 16:16 38.65160 -27.90943 6973 ft 211 kts 94°
2026-05-08 16:16 38.64889 -27.89104 6972 ft 210 kts 93°
2026-05-08 16:16 38.64618 -27.87266 6977 ft 210 kts 93°
2026-05-08 16:17 38.64350 -27.85445 6972 ft 210 kts 93°
2026-05-08 16:17 38.64168 -27.84222 6972 ft 210 kts 93°
2026-05-08 16:17 38.63807 -27.81779 6964 ft 210 kts 93°
2026-05-08 16:17 38.63535 -27.79945 6965 ft 210 kts 93°
2026-05-08 16:18 38.63262 -27.78105 6969 ft 209 kts 93°
2026-05-08 16:18 38.62990 -27.76274 6984 ft 209 kts 94°
2026-05-08 16:18 38.62722 -27.74463 6982 ft 209 kts 94°
2026-05-08 16:18 38.62449 -27.72623 6983 ft 210 kts 94°
2026-05-08 16:19 38.62173 -27.70786 6982 ft 210 kts 94°
2026-05-08 16:19 38.61902 -27.68971 6977 ft 210 kts 93°
2026-05-08 16:19 38.61629 -27.67133 6978 ft 210 kts 94°
2026-05-08 16:19 38.61354 -27.65295 6979 ft 209 kts 94°
2026-05-08 16:20 38.61081 -27.63466 6978 ft 210 kts 94°
2026-05-08 16:20 38.60810 -27.61652 6978 ft 210 kts 94°
2026-05-08 16:20 38.60534 -27.59815 6978 ft 210 kts 94°
2026-05-08 16:20 38.60258 -27.57978 6973 ft 210 kts 94°
2026-05-08 16:21 38.59982 -27.56144 6972 ft 210 kts 94°
2026-05-08 16:21 38.59708 -27.54326 6974 ft 209 kts 94°
2026-05-08 16:21 38.59433 -27.52499 6969 ft 209 kts 94°
2026-05-08 16:21 38.59160 -27.50691 6971 ft 208 kts 94°
2026-05-08 16:22 38.58884 -27.48866 6970 ft 208 kts 94°
2026-05-08 16:22 38.58611 -27.47047 6972 ft 209 kts 94°
2026-05-08 16:22 38.58333 -27.45213 6964 ft 210 kts 94°
2026-05-08 16:22 38.58059 -27.43404 6965 ft 210 kts 94°
2026-05-08 16:23 38.57779 -27.41563 6965 ft 211 kts 94°
2026-05-08 16:23 38.57499 -27.39720 6964 ft 210 kts 94°
2026-05-08 16:23 38.57220 -27.37881 6965 ft 210 kts 94°
2026-05-08 16:23 38.56945 -27.36073 6965 ft 210 kts 94°
2026-05-08 16:24 38.56665 -27.34237 6962 ft 210 kts 94°
2026-05-08 16:24 38.56385 -27.32401 6962 ft 210 kts 94°
2026-05-08 16:24 38.56105 -27.30566 6963 ft 211 kts 94°
2026-05-08 16:24 38.55824 -27.28724 6963 ft 211 kts 94°
2026-05-08 16:25 38.55542 -27.26884 6961 ft 211 kts 94°
2026-05-08 16:25 38.55259 -27.25042 6985 ft 210 kts 94°
2026-05-08 16:25 38.54978 -27.23203 6900 ft 214 kts 94°
2026-05-08 16:25 38.54688 -27.21300 6681 ft 223 kts 94°
2026-05-08 16:26 38.54476 -27.19318 6418 ft 226 kts 85°
2026-05-08 16:26 38.54492 -27.17305 6151 ft 228 kts 82°
2026-05-08 16:26 38.54471 -27.15314 6003 ft 216 kts 86°
2026-05-08 16:26 38.54390 -27.13496 5984 ft 200 kts 85°
2026-05-08 16:27 38.54330 -27.11734 5985 ft 198 kts 85°
2026-05-08 16:27 38.54272 -27.09979 5980 ft 198 kts 85°
2026-05-08 16:27 38.54212 -27.08207 5984 ft 201 kts 85°
2026-05-08 16:27 38.54148 -27.06405 5982 ft 203 kts 85°
2026-05-08 16:28 38.54083 -27.04596 5985 ft 204 kts 85°
2026-05-08 16:28 38.54018 -27.02778 5987 ft 205 kts 85°
2026-05-08 16:28 38.53953 -27.00957 5991 ft 206 kts 85°
2026-05-08 16:28 38.53888 -26.99129 5989 ft 206 kts 85°
2026-05-08 16:29 38.53822 -26.97295 5985 ft 207 kts 85°
2026-05-08 16:29 38.53804 -26.95471 5983 ft 202 kts 76°
2026-05-08 16:29 38.54215 -26.93808 5988 ft 193 kts 55°
2026-05-08 16:29 38.55005 -26.92478 5985 ft 185 kts 36°
2026-05-08 16:30 38.56038 -26.91588 5948 ft 181 kts 20°
2026-05-08 16:30 38.57268 -26.91156 5607 ft 180 kts
2026-05-08 16:30 38.58467 -26.91241 5287 ft 167 kts 347°
2026-05-08 16:30 38.59526 -26.91747 4983 ft 160 kts 333°
2026-05-08 16:31 38.60404 -26.92592 4694 ft 157 kts 320°
2026-05-08 16:31 38.61224 -26.93483 4409 ft 153 kts 325°
2026-05-08 16:31 38.62042 -26.94335 4126 ft 151 kts 323°
2026-05-08 16:31 38.62852 -26.95185 3862 ft 149 kts 324°
2026-05-08 16:32 38.63653 -26.96015 3597 ft 148 kts 324°
2026-05-08 16:32 38.64449 -26.96844 3323 ft 147 kts 324°
2026-05-08 16:32 38.65238 -26.97669 3052 ft 146 kts 324°
2026-05-08 16:32 38.66022 -26.98487 2758 ft 147 kts 324°
2026-05-08 16:33 38.66803 -26.99301 2523 ft 141 kts 325°
2026-05-08 16:33 38.67545 -27.00070 2310 ft 134 kts 324°
2026-05-08 16:33 38.68233 -27.00792 2120 ft 122 kts 325°
2026-05-08 16:33 38.68851 -27.01435 1957 ft 109 kts 325°
2026-05-08 16:34 38.69416 -27.02018 1804 ft 98 kts 325°
2026-05-08 16:34 38.69886 -27.02509 1677 ft 83 kts 325°
2026-05-08 16:34 38.70334 -27.02981 1558 ft 86 kts 324°
2026-05-08 16:34 38.70809 -27.03472 1434 ft 89 kts 324°
2026-05-08 16:35 38.71291 -27.03977 1304 ft 90 kts 326°
2026-05-08 16:35 38.71779 -27.04489 1170 ft 91 kts 324°
2026-05-08 16:35 38.72259 -27.04986 1039 ft 87 kts 326°
2026-05-08 16:35 38.72731 -27.05478 914 ft 87 kts 326°
2026-05-08 16:36 38.73190 -27.05956 790 ft 84 kts 325°
2026-05-08 16:36 38.73648 -27.06436 668 ft 86 kts 324°
2026-05-08 16:36 38.74115 -27.06929 547 ft 88 kts 322°
2026-05-08 16:36 38.74574 -27.07413 395 ft 84 kts 323°
2026-05-08 16:37 38.75043 -27.07896 266 ft 88 kts 322°
2026-05-08 16:37 38.75512 -27.08382 191 ft 83 kts 323°
2026-05-08 16:37 38.75915 -27.08799 175 ft 67 kts 320°
2026-05-08 16:37 38.76134 -27.09014 174 ft 24 kts 328°
2026-05-08 16:38 38.76247 -27.09070 173 ft 14 kts 356°
2026-05-08 16:38 38.76330 -27.09064 172 ft 10 kts
2026-05-08 16:38 38.76377 -27.09031 172 ft 7 kts 68°
2026-05-08 16:38 38.76392 -27.08981 172 ft 5 kts 43°
2026-05-08 16:39 38.76414 -27.08957 172 ft 4 kts 73°
2026-05-08 16:39 38.76401 -27.08958 172 ft 4 kts 302°
2026-05-08 16:39 38.76432 -27.08972 172 ft 6 kts 350°
2026-05-08 16:39 38.76442 -27.08996 172 ft 5 kts 212°
2026-05-08 16:40 38.76423 -27.09021 172 ft 0 kts 230°